This is the latest recevied weather packets stored in our database for station/object K7ZQU-7. If no packets are shown the sender has not sent any weather packets the latest 10 day(s).
| Time | Temp. | Humidity | Pressure | Rain* | Wind** | Luminosity | Snow |
|---|---|---|---|---|---|---|---|
| 1777685130 | 16.11° C | 53% | 1014.9 hPa | 0 mm | 0.89 m/s, 333° | - | - |
| 1777684839 | 16.67° C | 51% | 1014.7 hPa | 0 mm | 1.79 m/s, 300° | - | - |
| 1777684531 | 16.67° C | 51% | 1014.7 hPa | 0 mm | 0.89 m/s, 307° | - | - |
| 1777684246 | 16.67° C | 50% | 1014.7 hPa | 0 mm | 1.34 m/s, 291° | - | - |
| 1777683931 | 17.22° C | 49% | 1014.7 hPa | 0 mm | 1.79 m/s, 308° | - | - |
| 1777683632 | 17.22° C | 48% | 1014.7 hPa | 0 mm | 1.79 m/s, 290° | - | - |
| 1777683333 | 17.22° C | 48% | 1014.7 hPa | 0 mm | 1.34 m/s, 311° | - | - |
| 1777683031 | 17.22° C | 47% | 1014.7 hPa | 0 mm | 0.89 m/s, 332° | - | - |
| 1777682732 | 17.22° C | 46% | 1014.7 hPa | 0 mm | 2.24 m/s, 304° | - | - |
| 1777682433 | 17.78° C | 46% | 1014.7 hPa | 0 mm | 1.79 m/s, 260° | - | - |
| 1777682134 | 17.78° C | 45% | 1014.7 hPa | 0 mm | 1.79 m/s, 330° | - | - |
| 1777681835 | 17.78° C | 44% | 1014.7 hPa | 0 mm | 1.79 m/s, 278° | - | - |
| 1777681534 | 17.78° C | 45% | 1014.7 hPa | 0 mm | 1.34 m/s, 256° | - | - |
| 1777681235 | 17.78° C | 42% | 1014.9 hPa | 0 mm | 0.45 m/s, 343° | - | - |
| 1777680936 | 17.78° C | 45% | 1015 hPa | 0 mm | 0.45 m/s, 302° | - | - |
| 1777680637 | 17.78° C | 43% | 1015 hPa | 0 mm | 0.89 m/s, 302° | - | - |
| 1777680338 | 17.78° C | 43% | 1014.9 hPa | 0 mm | 2.68 m/s, 342° | - | - |
| 1777680036 | 18.33° C | 43% | 1014.7 hPa | 0 mm | 1.79 m/s, 343° | - | - |
| 1777679737 | 18.33° C | 43% | 1014.7 hPa | 0 mm | 1.79 m/s, 284° | - | - |
| 1777679438 | 18.33° C | 41% | 1014.7 hPa | 0 mm | 2.24 m/s, 335° | - | - |
| 1777679139 | 18.33° C | 42% | 1014.6 hPa | 0 mm | 2.68 m/s, 283° | - | - |
| 1777678840 | 18.89° C | 41% | 1014.6 hPa | 0 mm | 2.24 m/s, 312° | - | - |
| 1777678538 | 18.89° C | 41% | 1014.6 hPa | 0 mm | 0.45 m/s, 315° | - | - |
| 1777678240 | 19.44° C | 41% | 1014.7 hPa | 0 mm | 1.34 m/s, 283° | - | - |
| 1777677941 | 19.44° C | 39% | 1014.7 hPa | 0 mm | 1.79 m/s, 283° | - | - |
* Rain latest hour (hover to see other rain measurements)
** Current wind speed in m/s (hover to see current wind gust speed)